Vienna, OH

2:58 PM EDT on September 25, 2016 (GMT -0400)
Youngstown-Warren Regional

Weather History for KYNG - September, 2012

Change the Weather History Date:

Tuesday, September 18, 2012

  Actual Average Record
Temperature  
Mean Temperature 57 °F 61 °F  
Max Temperature 65 °F 72 °F 90 °F (1955)
Min Temperature 48 °F 51 °F 34 °F (1990)
Degree Days  
Heating Degree Days 8 5  
Month to date heating degree days 58 57  
Since 1 July heating degree days 64 95  
Cooling Degree Days 0 1  
Month to date cooling degree days 64 40  
Year to date cooling degree days 758 526  
Growing Degree Days 7 (Base 50)    
Moisture  
Dew Point 58 °F    
Average Humidity 86    
Maximum Humidity 100    
Minimum Humidity 72    
Precipitation  
Precipitation 0.49 in 0.12 in 2.05 in (2006)
Month to date precipitation 2.96 2.28  
Year to date precipitation 31.40 28.50  
Snow  
Snow 0.00 in 0.00 in - ()
Month to date snowfall 0.0 0.0  
Since 1 July snowfall T 0.0  
Since 1 September snowfall 0.0 0.0  
Snow Depth 0.00 in    
Sea Level Pressure  
Sea Level Pressure 29.67 in    
Wind  
Wind Speed 7 mph (WSW)    
Max Wind Speed 21 mph    
Max Gust Speed 28 mph    
Visibility 6 miles    
Events Rain    
T = Trace of Precipitation, MM = Missing Value Source: NWS Daily Summary

Daily Weather History Graph

Daily Weather History Graph

Search for Another Location

Airport or City:

Trip Planner

Search our weather history database for the weather conditions in past years. The results will help you decide how hot, cold, wet, or windy it might be!

Date:

Astronomy

Sep. 18, 2012 Rise Set
Actual Time 7:06 AM EDT 7:25 PM EDT
Civil Twilight 6:38 AM EDT 7:53 PM EDT
Nautical Twilight 6:06 AM EDT 8:25 PM EDT
Astronomical Twilight 5:33 AM EDT 8:59 PM EDT
Moon 10:07 AM EDT (9/18) 8:45 PM EDT (9/18)
Length of Visible Light 13h 14m
Length of Day
12h 19m
Waxing Crescent, 9% of the Moon is Illuminated
Sep 18
Waxing Crescent
Sep 22
First Quarter
Sep 29
Full
Oct 8
Last Quarter
Oct 15
New

Hourly Weather History & Observations

Time (EDT) Temp. Dew Point Humidity Pressure Visibility Wind Dir Wind Speed Gust Speed Precip Events Conditions
12:51 AM 62.1 °F 59.0 °F 90% 29.81 in 7.0 mi South 6.9 mph - 0.02 in Rain Light Rain
1:51 AM 62.1 °F 60.1 °F 93% 29.78 in 9.0 mi SSE 6.9 mph - 0.00 in   Mostly Cloudy
2:51 AM 63.0 °F 60.1 °F 90% 29.74 in 9.0 mi South 6.9 mph - N/A   Overcast
3:51 AM 63.0 °F 61.0 °F 93% 29.72 in 9.0 mi South 4.6 mph - 0.00 in Rain Light Rain
4:09 AM 62.6 °F 60.8 °F 94% 29.73 in 6.0 mi South 4.6 mph - 0.00 in Rain Light Rain
4:29 AM 62.6 °F 60.8 °F 94% 29.72 in 5.0 mi South 5.8 mph - 0.01 in Rain Light Rain
4:51 AM 63.0 °F 61.0 °F 93% 29.68 in 4.0 mi SSE 5.8 mph - 0.03 in Rain Light Rain
5:51 AM 62.1 °F 61.0 °F 96% 29.63 in 3.0 mi ESE 8.1 mph - 0.07 in Rain Rain
6:51 AM 62.1 °F 60.1 °F 93% 29.63 in 4.0 mi SE 6.9 mph - 0.11 in Rain Rain
7:24 AM 60.8 °F 60.8 °F 100% 29.63 in 5.0 mi SE 5.8 mph - 0.08 in Rain Rain
7:51 AM 61.0 °F 60.1 °F 97% 29.60 in 2.5 mi Calm Calm - 0.12 in Rain Rain
8:51 AM 62.1 °F 60.1 °F 93% 29.58 in 2.5 mi Calm Calm - 0.04 in Rain Light Rain
9:19 AM 62.6 °F 60.8 °F 94% 29.60 in 1.5 mi SSW 4.6 mph - 0.01 in Rain Light Rain
9:31 AM 62.6 °F 60.8 °F 94% 29.60 in 2.5 mi SSW 6.9 mph - 0.01 in   Overcast
9:51 AM 62.6 °F 60.8 °F 94% 29.59 in 2.5 mi SSW 5.8 mph - N/A Rain Light Rain
10:25 AM 62.6 °F 62.6 °F 100% 29.60 in 5.0 mi SSW 6.9 mph - 0.00 in Rain Light Rain
10:37 AM 64.4 °F 62.6 °F 94% 29.60 in 10.0 mi SW 8.1 mph - 0.00 in   Overcast
10:49 AM 64.4 °F 62.6 °F 94% 29.60 in 0.8 mi SW 10.4 mph - 0.00 in Rain Light Rain
10:51 AM 63.0 °F 61.0 °F 93% 29.58 in 0.8 mi SSW 10.4 mph - 0.01 in Rain Light Rain
10:59 AM 62.6 °F 62.6 °F 100% 29.60 in 1.2 mi SW 9.2 mph - 0.01 in Rain Light Rain
11:17 AM 64.4 °F 62.6 °F 94% 29.59 in 1.5 mi SW 9.2 mph - 0.02 in   Overcast
11:30 AM 64.4 °F 62.6 °F 94% 29.59 in 1.5 mi WSW 9.2 mph - 0.02 in   Overcast
11:38 AM 64.4 °F 62.6 °F 94% 29.60 in 10.0 mi SW 9.2 mph - 0.02 in   Overcast
11:51 AM 64.0 °F 62.1 °F 93% 29.58 in 2.0 mi SW 5.8 mph - 0.02 in Rain Light Rain
12:01 PM 64.4 °F 62.6 °F 94% 29.59 in 5.0 mi WSW 9.2 mph - 0.01 in Rain Light Rain
12:24 PM 64.4 °F 62.6 °F 94% 29.59 in 2.5 mi West 10.4 mph - 0.02 in Rain Light Rain
12:41 PM 64.4 °F 62.6 °F 94% 29.59 in 1.5 mi WSW 10.4 mph - 0.03 in Rain Rain
12:51 PM 64.0 °F 62.1 °F 93% 29.58 in 5.0 mi West 11.5 mph - 0.05 in Rain Light Rain
1:12 PM 64.4 °F 62.6 °F 94% 29.59 in 2.5 mi WSW 16.1 mph 20.7 mph 0.00 in Rain Light Rain
1:19 PM 62.6 °F 60.8 °F 94% 29.59 in 1.0 mi West 13.8 mph 27.6 mph 0.02 in Rain Rain
1:43 PM 62.6 °F 60.8 °F 94% 29.60 in 2.5 mi WNW 16.1 mph 24.2 mph 0.02 in   Overcast
1:51 PM 63.0 °F 60.1 °F 90% 29.60 in 10.0 mi WNW 12.7 mph 21.9 mph 0.02 in   Overcast
2:29 PM 60.8 °F 57.2 °F 88% 29.63 in 10.0 mi NW 15.0 mph 23.0 mph 0.00 in Rain Light Rain
2:51 PM 59.0 °F 57.0 °F 93% 29.64 in 10.0 mi WNW 10.4 mph 19.6 mph 0.00 in Rain Light Rain
3:51 PM 57.9 °F 54.0 °F 87% 29.67 in 10.0 mi WNW 13.8 mph - 0.00 in   Overcast
4:51 PM 57.9 °F 52.0 °F 81% 29.71 in 10.0 mi WNW 12.7 mph - N/A   Overcast
5:40 PM 57.2 °F 50.0 °F 77% 29.73 in 10.0 mi WNW 11.5 mph 18.4 mph N/A   Mostly Cloudy
5:51 PM 57.0 °F 50.0 °F 77% 29.73 in 10.0 mi NW 11.5 mph - N/A   Mostly Cloudy
6:31 PM 57.2 °F 50.0 °F 77% 29.76 in 10.0 mi WNW 10.4 mph - N/A   Mostly Cloudy
6:51 PM 57.9 °F 48.9 °F 72% 29.76 in 10.0 mi NW 9.2 mph - N/A   Mostly Cloudy
7:51 PM 55.0 °F 46.0 °F 72% 29.81 in 10.0 mi WNW 6.9 mph - N/A   Mostly Cloudy
8:51 PM 52.0 °F 46.9 °F 83% 29.84 in 10.0 mi West 4.6 mph - N/A   Mostly Cloudy
9:51 PM 53.1 °F 48.0 °F 83% 29.88 in 9.0 mi NW 8.1 mph - 0.01 in Rain Light Rain
10:51 PM 50.0 °F 46.9 °F 89% 29.90 in 10.0 mi West 4.6 mph - 0.00 in   Mostly Cloudy
11:51 PM 50.0 °F 46.9 °F 89% 29.91 in 10.0 mi SW 4.6 mph - 0.00 in   Scattered Clouds